Location: Newark
(34.4697°S, 57.8467°W)
Time: 09:56:13
(UTC+00:00)

Envisat - Visible Passes

Search period start: 19 July 2019 00:00
Search period end: 29 July 2019 00:00
Orbit: 764 x 766 km, 98.1° (Epoch: 19 July)

Date Brightness Start Highest point End Pass type
(mag) Time Alt. Az. Time Alt. Az. Time Alt. Az.
19 Jul 5.5 09:11:44 10° ENE 09:15:24 20° ESE 09:19:05 10° SSE visible
19 Jul 2.9 23:05:04 46° S 23:06:39 88° WSW 23:11:45 10° NNW visible
20 Jul 3.1 10:12:10 10° NNE 10:17:16 84° ESE 10:22:27 10° S visible
20 Jul 3.4 22:27:43 27° SE 22:29:51 38° E 22:34:35 10° NNE visible
21 Jul 5.2 00:07:55 21° WSW 00:08:33 21° WSW 00:12:20 10° WNW visible
21 Jul 4.6 09:36:04 10° NE 09:40:41 35° ESE 09:45:20 10° S visible
21 Jul 4.5 21:50:22 12° ESE 21:52:52 16° E 21:56:00 10° NE visible
21 Jul 3.8 23:30:34 37° SSW 23:32:06 48° WSW 23:36:58 10° NW visible
22 Jul 5.7 09:01:16 10° ENE 09:04:16 16° ESE 09:07:19 10° SSE visible
22 Jul 2.9 22:53:13 35° SSE 22:55:25 72° ENE 23:00:30 10° N visible
23 Jul 5.9 00:33:24 12° WSW 00:33:45 12° WSW 00:35:32 10° W visible
23 Jul 3.5 10:01:01 10° NNE 10:06:03 65° ESE 10:11:10 10° S visible
23 Jul 3.8 22:15:51 19° SE 22:18:34 30° E 22:23:00 10° NNE visible
23 Jul 4.9 23:56:02 24° SW 23:57:25 27° WSW 00:01:38 10° NW visible
24 Jul 5.0 09:25:14 10° NE 09:29:31 28° ESE 09:33:51 10° SSE visible
24 Jul 4.7 21:39:26 10° ESE 21:41:30 12° E 21:43:34 10° ENE visible
24 Jul 3.4 23:18:40 33° S 23:20:53 62° WSW 23:25:55 10° NNW visible
25 Jul 5.9 08:51:08 10° E 08:53:11 12° ESE 08:55:14 10° SE visible
25 Jul 3.0 22:41:17 25° SSE 22:44:10 55° E 22:49:09 10° N visible
26 Jul 5.6 00:21:28 14° SW 00:22:39 15° WSW 00:25:31 10° W visible
26 Jul 4.0 09:49:57 10° NNE 09:54:51 50° ESE 09:59:50 10° S visible
26 Jul 4.1 22:03:53 13° SE 22:07:15 23° E 22:11:16 10° NNE visible
26 Jul 4.5 23:44:05 24° SSW 23:46:16 34° WSW 23:50:49 10° NW visible
27 Jul 5.4 09:14:30 10° ENE 09:18:22 22° ESE 09:22:16 10° SSE visible
27 Jul 3.0 23:06:40 26° S 23:09:41 80° WSW 23:14:46 10° NNW visible
28 Jul 3.1 10:15:12 10° NNE 10:20:18 88° W 10:25:29 10° SSW visible
28 Jul 3.3 22:29:14 17° SSE 22:32:54 43° E 22:37:43 10° N visible
